When you browse on this site, cookies collect data to enhance your experience and personalize the content and advertising you see.
Visit our Privacy Policy to learn more. By continuing to use the site, you agree to this use of cookies and data.
  • In Hungary
  • List of Countries
  • For 7 days
  • Water Temperature
  • Weather Map
  • News
  • Weather Widgets
  • user-avatar
    Login

    Hourly Weather Loktevo

    Today, 24 January, Friday

    Time Temperature Precipitation Wind Pressure Humidity
    00:00 -5°C° 0 mm 3 mps 742 mmHg 79%
    01:00 -5°C° 0 mm 3 mps 742 mmHg 81%
    02:00 -5°C° 0 mm 3 mps 741 mmHg 83%
    03:00 -4°C° 0.1 mm 3 mps 740 mmHg 85%
    04:00 -4°C° 0.1 mm 4 mps 739 mmHg 87%
    05:00 -4°C° 0.1 mm 4 mps 738 mmHg 89%
    06:00 -4°C° 0.3 mm 5 mps 737 mmHg 91%
    07:00 -4°C° 0.3 mm 5 mps 737 mmHg 92%
    08:00 -4°C° 0 mm 5 mps 736 mmHg 94%
    09:00 -2°C° 0.1 mm 5 mps 736 mmHg 92%
    10:00 -1°C° 0.1 mm 4 mps 735 mmHg 91%
    11:00 0°C° 0.1 mm 4 mps 735 mmHg 89%
    12:00 0°C° 0.1 mm 5 mps 734 mmHg 91%
    13:00 0°C° 0.1 mm 5 mps 734 mmHg 94%
    14:00 0°C° 0.1 mm 5 mps 734 mmHg 96%
    15:00 0°C° 0.1 mm 4 mps 733 mmHg 95%
    16:00 0°C° 0.1 mm 4 mps 733 mmHg 95%
    17:00 +1°C° 0.1 mm 3 mps 733 mmHg 94%
    18:00 0°C° 0 mm 3 mps 733 mmHg 94%
    19:00 0°C° 0 mm 3 mps 733 mmHg 93%
    20:00 -1°C° 0 mm 3 mps 732 mmHg 93%
    21:00 -1°C° 0.4 mm 3 mps 732 mmHg 94%
    22:00 0°C° 0.4 mm 3 mps 732 mmHg 95%
    23:00 0°C° 0.4 mm 3 mps 732 mmHg 96%

    Tomorrow, 25 January, Saturday

    Time Temperature Precipitation Wind Pressure Humidity
    00:00 -1°C° 0 mm 3 mps 732 mmHg 94%
    01:00 -2°C° 0 mm 4 mps 733 mmHg 91%
    02:00 -2°C° 0 mm 4 mps 733 mmHg 88%
    03:00 -2°C° 0 mm 4 mps 733 mmHg 87%
    04:00 -2°C° 0 mm 4 mps 732 mmHg 86%
    05:00 -2°C° 0 mm 4 mps 732 mmHg 84%
    06:00 -2°C° 0 mm 4 mps 732 mmHg 86%
    07:00 -2°C° 0 mm 4 mps 732 mmHg 88%
    08:00 -2°C° 0 mm 4 mps 731 mmHg 89%
    09:00 -1°C° 0.1 mm 5 mps 731 mmHg 88%
    10:00 -2°C° 0.1 mm 6 mps 730 mmHg 86%
    11:00 -2°C° 0.1 mm 7 mps 730 mmHg 85%
    12:00 -2°C° 0.2 mm 7 mps 730 mmHg 80%
    13:00 -3°C° 0.2 mm 7 mps 730 mmHg 74%
    14:00 -3°C° 0.2 mm 7 mps 730 mmHg 69%
    15:00 -3°C° 0 mm 7 mps 731 mmHg 73%
    16:00 -4°C° 0 mm 6 mps 732 mmHg 76%
    17:00 -5°C° 0 mm 6 mps 732 mmHg 80%
    18:00 -5°C° 0 mm 6 mps 733 mmHg 81%
    19:00 -5°C° 0 mm 6 mps 733 mmHg 81%
    20:00 -5°C° 0 mm 6 mps 733 mmHg 81%
    21:00 -5°C° 0.1 mm 6 mps 734 mmHg 80%
    22:00 -5°C° 0.1 mm 6 mps 735 mmHg 79%
    23:00 -5°C° 0.1 mm 6 mps 736 mmHg 77%

    Day after tomorrow, 26 January, Sunday

    Time Temperature Precipitation Wind Pressure Humidity
    00:00 -6°C° 0 mm 6 mps 737 mmHg 78%
    01:00 -6°C° 0 mm 5 mps 738 mmHg 78%
    02:00 -6°C° 0 mm 5 mps 739 mmHg 78%
    03:00 -6°C° 0 mm 5 mps 740 mmHg 79%
    04:00 -5°C° 0 mm 4 mps 740 mmHg 80%
    05:00 -7°C° 0 mm 4 mps 741 mmHg 81%
    06:00 -6°C° 0 mm 3 mps 741 mmHg 82%
    07:00 -6°C° 0 mm 3 mps 742 mmHg 84%
    08:00 -6°C° 0 mm 3 mps 742 mmHg 85%
    09:00 -5°C° 0 mm 3 mps 743 mmHg 83%
    10:00 -4°C° 0 mm 3 mps 743 mmHg 81%
    11:00 -4°C° 0 mm 3 mps 743 mmHg 79%
    12:00 -4°C° 0.1 mm 3 mps 742 mmHg 84%
    13:00 -4°C° 0.1 mm 4 mps 742 mmHg 88%
    14:00 -4°C° 0.1 mm 4 mps 741 mmHg 92%
    15:00 -3°C° 0.3 mm 4 mps 741 mmHg 93%
    16:00 -4°C° 0.3 mm 5 mps 740 mmHg 94%
    17:00 -2°C° 0.3 mm 5 mps 740 mmHg 95%
    18:00 -1°C° 0.1 mm 5 mps 739 mmHg 94%
    19:00 0°C° 0.1 mm 5 mps 739 mmHg 94%
    20:00 +1°C° 0.1 mm 5 mps 739 mmHg 93%
    21:00 +1°C° 0.1 mm 5 mps 739 mmHg 92%
    22:00 +1°C° 0.1 mm 5 mps 739 mmHg 91%
    23:00 +2°C° 0.1 mm 5 mps 739 mmHg 90%

    27 January, Monday

    Time Temperature Precipitation Wind Pressure Humidity
    00:00 +1°C° 0.1 mm 5 mps 739 mmHg 90%
    01:00 +1°C° 0.1 mm 5 mps 740 mmHg 90%
    02:00 +1°C° 0.1 mm 5 mps 740 mmHg 90%
    03:00 +1°C° 0 mm 4 mps 740 mmHg 91%
    04:00 +1°C° 0 mm 4 mps 740 mmHg 91%
    05:00 +1°C° 0 mm 4 mps 741 mmHg 92%
    06:00 +1°C° 0 mm 4 mps 741 mmHg 94%
    07:00 +1°C° 0 mm 4 mps 741 mmHg 95%
    08:00 +1°C° 0 mm 3 mps 741 mmHg 97%
    09:00 +1°C° 0 mm 3 mps 741 mmHg 97%
    10:00 +1°C° 0 mm 3 mps 742 mmHg 97%
    11:00 +2°C° 0 mm 3 mps 742 mmHg 97%
    12:00 +1°C° 0 mm 3 mps 742 mmHg 97%
    13:00 +1°C° 0 mm 3 mps 742 mmHg 97%
    14:00 +2°C° 0 mm 2 mps 742 mmHg 97%
    15:00 +2°C° 0.3 mm 2 mps 742 mmHg 97%
    16:00 +2°C° 0.3 mm 2 mps 742 mmHg 97%
    17:00 +2°C° 0.3 mm 2 mps 742 mmHg 97%
    18:00 +2°C° 0.2 mm 2 mps 742 mmHg 97%
    19:00 +2°C° 0.2 mm 2 mps 742 mmHg 97%
    20:00 +2°C° 0.2 mm 2 mps 742 mmHg 98%
    21:00 +2°C° 0.2 mm 2 mps 742 mmHg 98%
    22:00 +2°C° 0.2 mm 2 mps 742 mmHg 98%
    23:00 +2°C° 0.2 mm 2 mps 742 mmHg 98%

    28 January, Tuesday

    Time Temperature Precipitation Wind Pressure Humidity
    00:00 +1°C° 0.1 mm 2 mps 742 mmHg 98%
    01:00 +2°C° 0.1 mm 1 mps 742 mmHg 98%
    02:00 +2°C° 0.1 mm 1 mps 742 mmHg 98%
    03:00 +2°C° 0 mm 1 mps 742 mmHg 98%
    04:00 +2°C° 0 mm 1 mps 742 mmHg 98%
    05:00 +2°C° 0 mm 1 mps 742 mmHg 98%
    06:00 +2°C° 0 mm 1 mps 742 mmHg 98%
    07:00 +2°C° 0 mm 1 mps 742 mmHg 98%
    08:00 +2°C° 0 mm 1 mps 742 mmHg 98%
    09:00 +2°C° 0 mm 1 mps 742 mmHg 98%
    10:00 +2°C° 0 mm 1 mps 742 mmHg 98%
    11:00 +2°C° 0 mm 1 mps 742 mmHg 98%
    12:00 +2°C° 0 mm 1 mps 742 mmHg 98%
    13:00 +2°C° 0 mm 1 mps 742 mmHg 97%
    14:00 +2°C° 0 mm 1 mps 742 mmHg 97%
    15:00 +2°C° 0 mm 1 mps 742 mmHg 97%
    16:00 +2°C° 0 mm 1 mps 742 mmHg 96%
    17:00 -1°C° 0 mm 2 mps 742 mmHg 96%
    18:00 -1°C° 0 mm 2 mps 742 mmHg 95%
    19:00 -1°C° 0 mm 2 mps 742 mmHg 94%
    20:00 -1°C° 0 mm 2 mps 742 mmHg 94%
    21:00 -1°C° 0 mm 3 mps 742 mmHg 93%
    22:00 -1°C° 0 mm 3 mps 742 mmHg 93%
    23:00 -1°C° 0 mm 3 mps 742 mmHg 93%

    29 January, Wednesday

    Time Temperature Precipitation Wind Pressure Humidity
    00:00 -1°C° 0 mm 3 mps 742 mmHg 93%
    01:00 -1°C° 0 mm 3 mps 741 mmHg 93%
    02:00 -1°C° 0 mm 3 mps 741 mmHg 93%
    03:00 -1°C° 0 mm 3 mps 741 mmHg 93%
    04:00 -1°C° 0 mm 3 mps 741 mmHg 93%
    05:00 -1°C° 0 mm 3 mps 740 mmHg 94%
    06:00 -1°C° 0 mm 3 mps 740 mmHg 93%
    07:00 -1°C° 0 mm 4 mps 740 mmHg 93%
    08:00 -1°C° 0 mm 4 mps 740 mmHg 92%
    09:00 -1°C° 0 mm 4 mps 740 mmHg 91%
    10:00 -1°C° 0 mm 4 mps 739 mmHg 90%
    11:00 0°C° 0 mm 4 mps 739 mmHg 89%
    12:00 0°C° 0 mm 4 mps 739 mmHg 89%
    13:00 -1°C° 0 mm 4 mps 739 mmHg 88%
    14:00 -1°C° 0 mm 4 mps 738 mmHg 88%
    15:00 -1°C° 0 mm 4 mps 738 mmHg 88%
    16:00 -1°C° 0 mm 4 mps 738 mmHg 89%
    17:00 -1°C° 0 mm 4 mps 738 mmHg 89%
    18:00 -1°C° 0 mm 4 mps 737 mmHg 91%
    19:00 -1°C° 0 mm 5 mps 737 mmHg 94%
    20:00 -1°C° 0 mm 5 mps 737 mmHg 96%
    21:00 -1°C° 0.3 mm 5 mps 736 mmHg 96%
    22:00 -1°C° 0.3 mm 5 mps 736 mmHg 96%
    23:00 -1°C° 0.3 mm 5 mps 736 mmHg 96%
    Show more